This demonstration page uses our WeatherBlox Daily Observations layout. Learn more.

38.89511, -77.03637

Hourly Observations for February 17, 2015

Temp ( °F °C ) Dew Point ( °F °C ) Humidity (%) Winds ( mph kmh ) Pressure ( in mb ) Visibility ( mi km ) Precip ( " mm )
12:12 am 00:12 Mostly Cloudy with Scattered Snow Showers 18 -8 10 -12 73 73 Calm 30.03 1017 0.75 1.207005 0 0
12:30 am 00:30 Mostly Cloudy with Snow 18 -8 10 -12 73 73 ENE 5 7 30.03 1017 0.5 0.80467 0 0
12:44 am 00:44 Mostly Cloudy with Heavy Snow 18 -8 10 -12 73 73 ENE 5 7 30 1016 0.25 0.402335 0 0
12:52 am 00:52 Mostly Cloudy with Heavy Snow 17 -8.3 11 -11.7 77 77 NE 3 6 30.02 1017 0.25 0.402335 0.07 1.778
1:02 am 01:02 Mostly Cloudy with Scattered Snow Showers 18 -8 10 -12 73 73 NE 5 7 30 1016 0.75 1.207005 0.01 0.254
1:27 am 01:27 Mostly Cloudy with Snow 18 -8 10 -12 73 73 ENE 5 7 30 1016 0.5 0.80467 0.04 1.016
1:40 am 01:40 Mostly Cloudy with Snow 18 -8 10 -12 73 73 ENE 5 7 29.97 1015 0.5 0.80467 0.05 1.27
1:52 am 01:52 Mostly Cloudy with Snow 17 -8.3 11 -11.7 77 77 NE 6 9 29.98 1015 0.5 0.80467 0.06 1.524
2:19 am 02:19 Mostly Cloudy with Scattered Snow Showers 18 -8 10 -12 73 73 ENE 7 11 29.97 1015 1 1.60934 0.04 1.016
2:52 am 02:52 Mostly Cloudy with Scattered Snow Showers 17 -8.3 11 -11.7 77 77 NNE 3 6 29.95 1014 1 1.60934 0.06 1.524
3:38 am 03:38 Cloudy with Light Snow 18 -8 10 -12 73 73 NE 6 9 29.94 1014 1.5 2.41401 0 0
3:52 am 03:52 Cloudy with Light Snow 17 -8.3 11 -11.7 77 77 NE 6 9 29.93 1014 1.5 2.41401 0.03 0.762
4:00 am 04:00 Cloudy with Light Snow 18 -8 10 -12 73 73 NNE 3 6 29.94 1014 2 3.21868 0 0
4:52 am 04:52 Cloudy with Light Snow 17 -8.3 10 -12.2 74 74 NNE 7 11 29.93 1013 3 4.82802 0.01 0.254
5:52 am 05:52 Cloudy with Light Snow 18 -7.8 10 -12.2 71 71 NE 7 11 29.92 1013 9 14.48406 0 0.0254
6:52 am 06:52 Cloudy 18 -7.8 11 -11.7 74 74 NE 6 9 29.92 1013 10 16.0934 0 0.0254
7:52 am 07:52 Cloudy 18 -7.8 10 -12.2 71 71 NNE 7 11 29.93 1014 10 16.0934 0 0
8:52 am 08:52 Cloudy 19 -7.2 10 -12.2 68 68 N 7 11 29.94 1014 10 16.0934 0 0
9:52 am 09:52 Cloudy 20 -6.7 10 -12.2 65 65 N 6 9 29.96 1014 10 16.0934 0 0
9:57 am 09:57 Cloudy 21 -6 10 -12 63 63 N 7 11 29.97 1015 10 16.0934 0 0
10:52 am 10:52 Partly Cloudy 23 -5 10 -12.2 57 57 N 7 11 29.94 1014 10 16.0934 0 0
11:52 am 11:52 Partly Cloudy 25 -3.9 9 -12.8 50 50 NNW 10 17 29.95 1014 10 16.0934 0 0
12:52 pm 12:52 Mostly Sunny 27 -2.8 10 -12.2 49 49 N 8 13 29.93 1013 10 16.0934 0 0
1:52 pm 13:52 Mostly Sunny 28 -2.2 11 -11.7 49 49 NNW 13 20 29.91 1013 10 16.0934 0 0
2:52 pm 14:52 Mostly Sunny 30 -1.1 10 -12.2 43 43 NNW 8 13 29.93 1014 10 16.0934 0 0
3:52 pm 15:52 Mostly Sunny 29 -1.7 9 -12.8 43 43 N 9 15 29.92 1013 10 16.0934 0 0
4:52 pm 16:52 Partly Cloudy 29 -1.7 8 -13.3 41 41 NW 7 11 29.91 1013 10 16.0934 0 0
5:52 pm 17:52 Mostly Cloudy 28 -2.2 8 -13.3 43 43 W 6 9 29.93 1014 10 16.0934 0 0
6:52 pm 18:52 Mostly Cloudy 28 -2.2 10 -12.2 47 47 WNW 5 7 29.95 1014 10 16.0934 0 0
7:52 pm 19:52 Mostly Cloudy 28 -2.2 10 -12.2 47 47 NNW 5 7 29.95 1014 10 16.0934 0 0
8:52 pm 20:52 Mostly Cloudy 25 -3.9 15 -9.4 66 66 S 5 7 29.97 1015 10 16.0934 0 0
9:52 pm 21:52 Mostly Cloudy 25 -3.9 13 -10.6 60 60 Calm 29.98 1015 10 16.0934 0 0
10:52 pm 22:52 Mostly Cloudy 22 -5.6 13 -10.6 68 68 Calm 29.98 1015 10 16.0934 0 0
11:52 pm 23:52 Mostly Cloudy 22 -5.6 14 -10 71 71 Calm 29.98 1015 10 16.0934 0 0

Powered by AerisWeather